DW9727 Weather Reports


time (UTC)temp
C
wind
direction
speed
KPH
gust
KPH
rain 1hr
cm
rain 24hr
cm
rain mn
cm
humidity
%
barometer
mb
20260905222711 33 142 16.1 27.4 0.00 0.00 0.00 59 1008.6
20260905221711 33 173 19.3 27.4 0.00 0.00 0.00 59 1008.8
20260905215710 33 185 16.1 32.2 0.00 0.00 0.00 61 1009.0
20260905214711 33 135 14.5 25.7 0.00 0.00 0.00 62 1009.0
20260905213710 33 118 14.5 32.2 0.00 0.00 0.00 61 1009.0
20260905212711 33 173 17.7 29.0 0.00 0.00 0.00 61 1009.1
20260905211710 33 125 16.1 29.0 0.00 0.00 0.00 60 1009.3
20260905210710 33 183 20.9 33.8 0.00 0.00 0.00 59 1009.3
20260905205711 32 147 14.5 35.4 0.00 0.00 0.00 62 1009.4
20260905204711 32 136 17.7 32.2 0.00 0.00 0.00 62 1009.4
20260905203710 32 122 24.1 33.8 0.00 0.00 0.00 61 1009.5
20260905202710 32 114 20.9 35.4 0.00 0.00 0.00 62 1009.6
20260905201711 32 131 14.5 32.2 0.00 0.00 0.00 62 1010.1
20260905200711 32 107 14.5 32.2 0.00 0.00 0.00 63 1010.6
20260905195710 31 149 19.3 37.0 0.00 0.00 0.00 62 1010.7
20260905194711 31 107 17.7 32.2 0.00 0.00 0.00 62 1010.9
20260905193710 31 93 11.3 24.1 0.00 0.00 0.00 60 1011.2
20260905192710 31 99 19.3 32.2 0.00 0.00 0.00 57 1011.4
20260905191711 31 132 19.3 27.4 0.00 0.00 0.00 59 1011.5
20260905190710 31 114 14.5 32.2 0.00 0.00 0.00 59 1011.7
20260905185711 30 153 17.7 32.2 0.00 0.00 0.00 58 1011.9
20260905183710 30 75 19.3 32.2 0.00 0.00 0.00 58 1012.5
20260905182711 30 78 11.3 29.0 0.00 0.00 0.00 60 1012.6
20260905175711 29 92 17.7 33.8 0.00 0.00 0.00 66 1013.1
20260905174711 28 121 19.3 37.0 0.00 0.00 0.00 69 1013.0
20260905173710 28 133 17.7 32.2 0.00 0.00 0.00 70 1013.0
20260905172710 28 77 20.9 35.4 0.00 0.00 0.00 67 1012.8
20260905171710 28 109 19.3 33.8 0.00 0.00 0.00 67 1013.0
20260905170710 28 60 9.7 24.1 0.00 0.00 0.00 76 1012.9
20260905165710 28 11 11.3 33.8 0.00 0.00 0.00 75 1013.0
20260905164711 28 30 16.1 32.2 0.00 0.00 0.00 76 1013.1
20260905163710 28 57 12.9 32.2 0.00 0.00 0.00 75 1012.9
20260905162710 28 67 11.3 37.0 0.00 0.00 0.00 77 1013.1
20260905161710 28 33 16.1 33.8 0.00 0.00 0.00 78 1013.1
20260905160711 28 62 17.7 33.8 0.00 0.00 0.00 77 1013.3
20260905155710 28 29 19.3 38.6 0.00 0.00 0.00 76 1013.2
20260905154711 28 34 20.9 33.8 0.00 0.00 0.00 75 1012.8
20260905153710 28 325 9.7 29.0 0.00 0.00 0.00 74 1012.7
20260905152711 28 30 11.3 19.3 0.00 0.00 0.00 72 1012.6
20260905150711 28 60 9.7 20.9 0.00 0.00 0.00 70 1012.1
20260905144711 28 25 3.2 14.5 0.00 0.00 0.00 74 1012.1
20260905143710 27 15 8.0 19.3 0.00 0.00 0.00 74 1012.1
20260905142710 27 333 3.2 9.7 0.00 0.00 0.00 76 1011.8
20260905141711 26 20 4.8 9.7 0.00 0.00 0.00 79 1011.6
20260905140711 25 165 4.8 19.3 0.00 0.00 0.00 81 1011.6
20260905135711 25 46 1.6 19.3 0.00 0.00 0.00 83 1011.3
20260905134710 24 47 9.7 19.3 0.00 0.00 0.00 83 1011.8
20260905132711 23 34 3.2 4.8 0.00 0.00 0.00 84 1010.8
20260905131711 23 45 1.6 4.8 0.00 0.00 0.00 85 1010.4
20260905130711 23 53 1.6 3.2 0.00 0.00 0.00 87 1010.2
20260905125711 22 53 0.0 3.2 0.00 0.00 0.00 87 1010.0
20260905124711 22 53 0.0 0.0 0.00 0.00 0.00 87 1009.9
20260905123711 22 53 0.0 3.2 0.00 0.00 0.00 87 1009.9
20260905122711 22 53 0.0 4.8 0.00 0.00 0.00 87 1009.8
20260905120710 22 97 1.6 3.2 0.00 0.00 0.00 86 1009.6
20260905115711 22 83 1.6 3.2 0.00 0.00 0.00 87 1009.3
20260905114711 22 83 1.6 3.2 0.00 0.00 0.00 86 1009.1
20260905113710 22 80 1.6 3.2 0.00 0.00 0.00 85 1008.9
20260905112710 22 165 0.0 1.6 0.00 0.00 0.00 84 1008.8
20260905110711 23 173 1.6 4.8 0.00 0.00 0.00 84 1008.9
20260905105711 23 182 3.2 4.8 0.00 0.00 0.00 83 1008.8
20260905104710 23 170 0.0 0.0 0.00 0.00 0.00 83 1009.1
20260905103711 23 170 0.0 0.0 0.00 0.00 0.00 82 1009.1
20260905102711 23 173 1.6 3.2 0.00 0.00 0.00 82 1009.1
20260905101710 23 173 0.0 4.8 0.00 0.00 0.00 82 1009.0
20260905100710 23 159 1.6 8.0 0.00 0.00 0.00 82 1008.8
20260905093710 24 179 6.4 14.5 0.00 0.00 0.00 81 1008.7
20260905091711 25 172 9.7 14.5 0.00 0.00 0.00 80 1008.6
20260905090710 25 178 8.0 12.9 0.00 0.00 0.00 80 1008.8
20260905085711 25 165 8.0 11.3 0.00 0.00 0.00 80 1008.8
20260905083711 25 167 8.0 11.3 0.00 0.00 0.00 79 1009.1
20260905082711 25 175 8.0 9.7 0.00 0.00 0.00 79 1009.1
20260905081711 25 155 4.8 11.3 0.00 0.00 0.00 79 1009.2
20260905075711 25 151 3.2 9.7 0.00 0.00 0.00 79 1009.3
20260905074710 25 134 4.8 9.7 0.00 0.00 0.00 79 1009.4
20260905073711 25 126 4.8 4.8 0.00 0.00 0.00 79 1009.3
20260905072711 26 119 3.2 4.8 0.00 0.00 0.00 80 1009.6
20260905071710 26 136 3.2 4.8 0.00 0.00 0.00 79 1009.6
20260905065710 26 142 1.6 4.8 0.00 0.00 0.00 80 1009.8
20260905064711 26 142 1.6 8.0 0.00 0.00 0.00 80 1009.7
20260905063710 26 149 1.6 4.8 0.00 0.00 0.00 80 1009.7
20260905062711 26 149 0.0 3.2 0.00 0.00 0.00 79 1009.7
20260905061711 26 149 0.0 3.2 0.00 0.00 0.00 79 1009.9
20260905060711 27 149 1.6 3.2 0.00 0.00 0.00 79 1009.9
20260905054710 27 149 1.6 4.8 0.00 0.00 0.00 78 1010.0
20260905053711 27 169 3.2 9.7 0.00 0.00 0.00 77 1009.8
20260905052711 27 153 4.8 9.7 0.00 0.00 0.00 77 1009.8
20260905051710 27 144 4.8 11.3 0.00 0.00 0.00 76 1009.7
20260905050710 28 158 4.8 9.7 0.00 0.00 0.00 76 1009.8
20260905045710 28 135 3.2 8.0 0.00 0.00 0.00 76 1009.6
20260905044711 28 146 4.8 9.7 0.00 0.00 0.00 76 1009.4
20260905043711 28 114 3.2 8.0 0.00 0.00 0.00 76 1009.5
20260905042710 28 157 3.2 9.7 0.00 0.00 0.00 76 1009.5
20260905041711 28 148 4.8 11.3 0.00 0.00 0.00 75 1009.4
20260905040711 28 153 4.8 9.7 0.00 0.00 0.00 76 1009.4
20260905035711 28 134 3.2 8.0 0.00 0.00 0.00 76 1009.5
20260905034711 29 162 3.2 4.8 0.00 0.00 0.00 76 1009.5
20260905033711 29 141 3.2 4.8 0.00 0.00 0.00 76 1009.3
20260905032711 29 154 1.6 4.8 0.00 0.00 0.00 76 1009.3
20260905031710 29 146 3.2 9.7 0.00 0.00 0.00 76 1009.1
20260905025710 29 105 3.2 4.8 0.00 0.00 0.00 76 1009.1
20260905024710 30 74 1.6 3.2 0.00 0.00 0.00 74 1008.9
20260905023711 30 96 1.6 4.8 0.00 0.00 0.00 73 1008.9
20260905021711 30 117 0.0 4.8 0.00 0.00 0.00 71 1008.8
20260905020711 30 123 1.6 4.8 0.00 0.00 0.00 71 1008.5
20260905014710 31 63 0.0 4.8 0.00 0.00 0.00 69 1008.5
20260905013710 31 113 3.2 9.7 0.00 0.00 0.00 68 1008.4
20260905012711 31 118 4.8 9.7 0.00 0.00 0.00 67 1008.3
20260905011711 31 104 1.6 4.8 0.00 0.00 0.00 66 1008.4
20260905010711 32 172 1.6 3.2 0.00 0.00 0.00 65 1008.4
20260905005711 32 172 3.2 9.7 0.00 0.00 0.00 64 1008.5
20260905004710 32 148 3.2 4.8 0.00 0.00 0.00 62 1008.5
20260905001710 32 159 3.2 9.7 0.00 0.00 0.00 60 1008.4
20260905000711 33 132 4.8 8.0 0.00 0.00 0.00 58 1008.1
20260904235711 33 123 4.8 11.3 0.00 0.00 0.00 57 1008.0
20260904234711 33 151 8.0 16.1 0.00 0.00 0.00 57 1007.9
20260904232711 34 157 8.0 16.1 0.00 0.00 0.00 55 1007.9
20260904231711 34 178 6.4 11.3 0.00 0.00 0.00 55 1007.9
20260904230710 34 128 6.4 11.3 0.00 0.00 0.00 53 1008.1
20260904225711 33 161 8.0 14.5 0.00 0.00 0.00 55 1008.1
20260904224711 33 149 6.4 12.9 0.00 0.00 0.00 57 1008.1
20260904223710 33 160 1.6 8.0 0.00 0.00 0.00 57 1008.1